[sarex] 2 Line ISS Keps 9-27

Dave Larsen PhD doc at volcano.net
Tue Sep 26 20:16:27 PDT 2006


ISS
1 25544U 98067A   06269.83060125  .00021766  00000-0  13904-3 0  7482
2 25544 051.6357 023.8594 0012279 029.0360 110.5130 15.76204776449194


More information about the SAREX mailing list